User: anonymous   Login
Location: Rancho Del Sol Observatory
(38.7214°N, 120.6350°W)
Time: 02:46:02
(UTC-08:00)
Language:

Cosmos 2221 Rocket - Orbit

View from above orbital plane
View from above orbital plane
View from above satellite
View from above satellite

Ground track
Ground track

The orbit data is extracted from the following two-line orbital elements,

1 22237U 92080B   14325.87704360  .00000571  00000-0  75833-4 0  4971
2 22237 082.5131 270.4045 0020491 037.7253 014.8013 14.77968899184821
Epoch (UTC): 21 November 2014 21:02:56
Eccentricity: 0.0020491
inclination: 82.5131°
perigee height: 621 km
apogee height: 650 km
right ascension of ascending node: 270.4045°
argument of perigee: 37.7253°
revolutions per day: 14.77968899
mean anomaly at epoch: 14.8013°
orbit number at epoch: 18482

The dashed part of the orbit path shows where the satellite is in the earth's shadow,  

DLR